Location: *
(49.8044°N, 4.0558°E)
Time: 18:55:19
(UTC+00:00)

IGS 5A - Pass Details

Date: 09 April 2020
Orbit: 585 x 587 km, 97.6° (Epoch: 19 May)

Event Time Altitude Azimuth Distance (km) Brightness Sun altitude
Exits shadow 20:20:36 34° 110° (ESE) 971 4.0 -17.1°
Maximum altitude 20:21:44 43° 69° (ENE) 835 3.9 -17.3°
Drops below altitude 10° 20:25:40 10° 359° (N) 1,922 6.6 -17.8°
Sets 20:27:55 0° 352° (N) 2,827 7.7 -18.1°
